| time (UTC) | temp C | wind direction | speed KPH | gust KPH | rain 1hr cm | rain 24hr cm | rain mn cm | humidity % | barometer mb |
| 20260901111605 | 20 | 0 | 0.0 | 1.6 | 0.00 | 0.03 | 0.00 | 95 | 1013.4 |
| 20260901110052 | 20 | 0 | 0.0 | 4.8 | 0.00 | 0.03 | 0.00 | 95 | 1013.3 |
| 20260901104556 | 20 | 0 | 0.0 | 4.8 | 0.00 | 0.03 | 0.00 | 95 | 1013.1 |
| 20260901103058 | 20 | 0 | 0.0 | 0.0 | 0.00 | 0.03 | 0.00 | 95 | 1013.2 |
| 20260901101556 | 20 | 0 | 0.0 | 3.2 | 0.00 | 0.03 | 0.00 | 95 | 1013.1 |
| 20260901100054 | 20 | 110 | 0.0 | 6.4 | 0.00 | 0.03 | 0.00 | 95 | 1013.1 |
| 20260901094600 | 20 | 180 | 3.2 | 12.9 | 0.00 | 0.03 | 0.00 | 95 | 1013.1 |
| 20260901093100 | 20 | 152 | 1.6 | 11.3 | 0.00 | 0.03 | 0.00 | 95 | 1013.2 |
| 20260901091602 | 20 | 153 | 3.2 | 8.0 | 0.00 | 0.03 | 0.00 | 95 | 1013.2 |
| 20260901090056 | 20 | 159 | 4.8 | 11.3 | 0.00 | 0.03 | 0.00 | 96 | 1013.3 |
| 20260901084550 | 20 | 150 | 1.6 | 9.7 | 0.00 | 0.03 | 0.00 | 96 | 1013.3 |
| 20260901083055 | 20 | 0 | 0.0 | 6.4 | 0.00 | 0.03 | 0.00 | 96 | 1013.4 |
| 20260901081551 | 20 | 182 | 3.2 | 9.7 | 0.00 | 0.03 | 0.00 | 96 | 1013.3 |
| 20260901080107 | 20 | 161 | 3.2 | 11.3 | 0.00 | 0.03 | 0.00 | 96 | 1013.4 |
| 20260901074547 | 20 | 146 | 4.8 | 11.3 | 0.00 | 0.03 | 0.00 | 96 | 1013.4 |
| 20260901073056 | 20 | 168 | 6.4 | 11.3 | 0.00 | 0.03 | 0.00 | 96 | 1013.8 |
| 20260901071600 | 20 | 178 | 4.8 | 12.9 | 0.00 | 0.03 | 0.00 | 96 | 1013.9 |
| 20260901070059 | 20 | 180 | 6.4 | 9.7 | 0.00 | 0.03 | 0.00 | 96 | 1014.1 |
| 20260901064602 | 20 | 167 | 4.8 | 12.9 | 0.00 | 0.03 | 0.00 | 96 | 1014.3 |
| 20260901063114 | 20 | 140 | 4.8 | 9.7 | 0.00 | 0.03 | 0.00 | 96 | 1014.5 |
| 20260901061550 | 20 | 156 | 3.2 | 6.4 | 0.00 | 0.03 | 0.00 | 96 | 1014.6 |
| 20260901060054 | 20 | 183 | 0.0 | 4.8 | 0.00 | 0.03 | 0.00 | 95 | 1015.1 |
| 20260901054549 | 20 | 0 | 0.0 | 3.2 | 0.00 | 0.03 | 0.00 | 95 | 1015.4 |
| 20260901053114 | 20 | 183 | 3.2 | 6.4 | 0.00 | 0.03 | 0.00 | 95 | 1015.2 |
| 20260901051559 | 20 | 183 | 3.2 | 6.4 | 0.00 | 0.03 | 0.00 | 96 | 1015.4 |
| 20260901050055 | 20 | 183 | 3.2 | 6.4 | 0.00 | 0.03 | 0.00 | 96 | 1015.4 |
| 20260901044550 | 20 | 0 | 1.6 | 4.8 | 0.00 | 0.03 | 0.00 | 96 | 1015.5 |
| 20260901043100 | 20 | 0 | 0.0 | 0.0 | 0.00 | 0.03 | 0.00 | 96 | 1015.5 |
| 20260901041545 | 20 | 183 | 0.0 | 4.8 | 0.00 | 0.03 | 0.00 | 96 | 1015.5 |
| 20260901040057 | 20 | 0 | 0.0 | 0.0 | 0.00 | 0.03 | 0.00 | 95 | 1015.7 |
| 20260901034552 | 20 | 0 | 0.0 | 3.2 | 0.00 | 0.03 | 0.03 | 95 | 1015.7 |
| 20260901033046 | 20 | 183 | 1.6 | 4.8 | 0.00 | 0.03 | 0.03 | 95 | 1015.9 |
| 20260901031549 | 20 | 183 | 0.0 | 3.2 | 0.00 | 0.03 | 0.03 | 95 | 1015.9 |
| 20260901030054 | 20 | 183 | 1.6 | 4.8 | 0.00 | 0.03 | 0.03 | 95 | 1016.2 |
| 20260901024548 | 20 | 183 | 4.8 | 8.0 | 0.00 | 0.03 | 0.03 | 95 | 1016.3 |
| 20260901023051 | 20 | 183 | 1.6 | 6.4 | 0.00 | 0.03 | 0.03 | 95 | 1016.4 |
| 20260901021553 | 20 | 183 | 3.2 | 6.4 | 0.00 | 0.03 | 0.03 | 95 | 1016.5 |
| 20260901020058 | 20 | 183 | 3.2 | 6.4 | 0.00 | 0.03 | 0.03 | 95 | 1016.4 |
| 20260901014555 | 20 | 183 | 3.2 | 9.7 | 0.00 | 0.03 | 0.03 | 95 | 1016.3 |
| 20260901013104 | 20 | 183 | 4.8 | 9.7 | 0.00 | 0.03 | 0.03 | 95 | 1016.3 |
| 20260901011555 | 20 | 152 | 3.2 | 9.7 | 0.00 | 0.03 | 0.03 | 95 | 1016.2 |
| 20260901010058 | 20 | 152 | 3.2 | 9.7 | 0.00 | 0.03 | 0.03 | 95 | 1016.2 |
| 20260901004559 | 20 | 175 | 3.2 | 8.0 | 0.00 | 0.03 | 0.03 | 95 | 1016.3 |
| 20260901003107 | 20 | 174 | 4.8 | 9.7 | 0.00 | 0.03 | 0.03 | 95 | 1016.2 |
| 20260901001547 | 20 | 204 | 1.6 | 4.8 | 0.00 | 0.03 | 0.03 | 95 | 1016.2 |
| 20260901000053 | 20 | 204 | 3.2 | 6.4 | 0.00 | 0.03 | 0.03 | 94 | 1016.3 |
| 20260831234553 | 20 | 0 | 0.0 | 1.6 | 0.00 | 0.03 | 0.03 | 94 | 1016.2 |
| 20260831233054 | 20 | 0 | 0.0 | 3.2 | 0.00 | 0.03 | 0.03 | 94 | 1016.4 |
| 20260831231559 | 20 | 204 | 1.6 | 4.8 | 0.00 | 0.03 | 0.03 | 94 | 1016.3 |
| 20260831230058 | 20 | 0 | 0.0 | 4.8 | 0.00 | 0.03 | 0.03 | 94 | 1016.4 |
| 20260831224558 | 20 | 204 | 1.6 | 6.4 | 0.00 | 0.03 | 0.03 | 94 | 1016.6 |
| 20260831223045 | 20 | 204 | 3.2 | 9.7 | 0.00 | 0.03 | 0.03 | 94 | 1016.5 |
| 20260831221551 | 20 | 175 | 4.8 | 9.7 | 0.00 | 0.03 | 0.03 | 94 | 1016.5 |
| 20260831220050 | 20 | 175 | 3.2 | 9.7 | 0.00 | 0.03 | 0.03 | 93 | 1016.7 |
| 20260831214556 | 21 | 175 | 3.2 | 6.4 | 0.00 | 0.03 | 0.03 | 93 | 1016.6 |
| 20260831213058 | 21 | 175 | 3.2 | 6.4 | 0.00 | 0.03 | 0.03 | 93 | 1016.6 |
| 20260831211603 | 21 | 175 | 3.2 | 6.4 | 0.00 | 0.03 | 0.03 | 93 | 1016.8 |
| 20260831210049 | 21 | 175 | 3.2 | 6.4 | 0.00 | 0.03 | 0.03 | 93 | 1016.7 |
| 20260831204555 | 21 | 175 | 0.0 | 4.8 | 0.00 | 0.03 | 0.03 | 93 | 1016.8 |
| 20260831203058 | 21 | 0 | 1.6 | 4.8 | 0.00 | 0.03 | 0.03 | 92 | 1017.0 |
| 20260831201559 | 21 | 163 | 3.2 | 8.0 | 0.00 | 0.03 | 0.03 | 92 | 1017.0 |
| 20260831200049 | 21 | 167 | 8.0 | 14.5 | 0.00 | 0.03 | 0.03 | 92 | 1016.9 |
| 20260831194636 | 21 | 188 | 8.0 | 12.9 | 0.00 | 0.05 | 0.03 | 91 | 1017.2 |
| 20260831193053 | 21 | 186 | 1.6 | 9.7 | 0.00 | 0.05 | 0.03 | 92 | 1017.5 |
| 20260831191550 | 21 | 166 | 4.8 | 9.7 | 0.00 | 0.05 | 0.03 | 92 | 1017.5 |
| 20260831190059 | 21 | 151 | 1.6 | 9.7 | 0.00 | 0.05 | 0.03 | 91 | 1017.5 |
| 20260831184600 | 21 | 161 | 8.0 | 14.5 | 0.00 | 0.08 | 0.03 | 90 | 1017.6 |
| 20260831183054 | 21 | 139 | 3.2 | 8.0 | 0.00 | 0.08 | 0.03 | 89 | 1017.8 |
| 20260831181554 | 21 | 148 | 4.8 | 8.0 | 0.00 | 0.08 | 0.03 | 89 | 1017.8 |
| 20260831180100 | 21 | 150 | 3.2 | 8.0 | 0.00 | 0.08 | 0.03 | 88 | 1018.2 |
| 20260831174555 | 21 | 158 | 4.8 | 14.5 | 0.00 | 0.08 | 0.03 | 88 | 1018.1 |
| 20260831173057 | 21 | 144 | 8.0 | 17.7 | 0.00 | 0.08 | 0.03 | 88 | 1018.2 |
| 20260831171600 | 21 | 139 | 8.0 | 16.1 | 0.00 | 0.08 | 0.03 | 89 | 1018.3 |
| 20260831170114 | 21 | 170 | 9.7 | 17.7 | 0.00 | 0.08 | 0.03 | 89 | 1018.6 |
| 20260831164553 | 21 | 179 | 11.3 | 19.3 | 0.00 | 0.08 | 0.03 | 90 | 1018.5 |
| 20260831163050 | 21 | 160 | 8.0 | 19.3 | 0.00 | 0.08 | 0.03 | 92 | 1018.7 |
| 20260831161552 | 20 | 164 | 8.0 | 16.1 | 0.03 | 0.08 | 0.03 | 93 | 1018.8 |
| 20260831160057 | 20 | 175 | 6.4 | 14.5 | 0.03 | 0.08 | 0.03 | 94 | 1018.9 |
| 20260831154616 | 20 | 159 | 6.4 | 11.3 | 0.03 | 0.08 | 0.03 | 94 | 1019.3 |
| 20260831153113 | 19 | 182 | 3.2 | 8.0 | 0.03 | 0.08 | 0.03 | 94 | 1019.2 |
| 20260831151603 | 19 | 148 | 4.8 | 12.9 | 0.00 | 0.05 | 0.00 | 94 | 1019.2 |
| 20260831150057 | 19 | 166 | 4.8 | 9.7 | 0.00 | 0.05 | 0.00 | 94 | 1019.1 |
| 20260831144638 | 19 | 0 | 1.6 | 4.8 | 0.00 | 0.05 | 0.00 | 94 | 1019.1 |
| 20260831143049 | 18 | 0 | 1.6 | 4.8 | 0.00 | 0.05 | 0.00 | 94 | 1018.8 |
| 20260831141600 | 18 | 0 | 1.6 | 6.4 | 0.00 | 0.05 | 0.00 | 93 | 1018.9 |
| 20260831140046 | 18 | 140 | 3.2 | 6.4 | 0.00 | 0.05 | 0.00 | 93 | 1019.2 |
| 20260831134601 | 18 | 140 | 3.2 | 4.8 | 0.00 | 0.05 | 0.00 | 93 | 1018.8 |
| 20260831133101 | 18 | 140 | 1.6 | 4.8 | 0.00 | 0.05 | 0.00 | 92 | 1018.8 |
| 20260831131602 | 18 | 171 | 6.4 | 12.9 | 0.00 | 0.05 | 0.00 | 92 | 1018.7 |
| 20260831130104 | 18 | 156 | 6.4 | 12.9 | 0.00 | 0.05 | 0.00 | 92 | 1018.9 |
| 20260831124608 | 18 | 156 | 6.4 | 9.7 | 0.00 | 0.05 | 0.00 | 92 | 1018.9 |
| 20260831123058 | 17 | 164 | 4.8 | 9.7 | 0.00 | 0.05 | 0.00 | 92 | 1019.1 |
| 20260831121605 | 17 | 167 | 6.4 | 11.3 | 0.00 | 0.05 | 0.00 | 92 | 1019.1 |
| 20260831120052 | 17 | 164 | 6.4 | 9.7 | 0.00 | 0.05 | 0.00 | 92 | 1019.3 |
| 20260831114556 | 17 | 169 | 4.8 | 12.9 | 0.00 | 0.05 | 0.00 | 92 | 1019.4 |
| 20260831113054 | 17 | 181 | 4.8 | 9.7 | 0.00 | 0.05 | 0.00 | 92 | 1019.3 |